Location: Las Vegas
(36.1750°N, 115.1360°W)
Time: 17:47:12
(UTC-07:00)

Amateur Radio Satellites - All Passes

Search period start: 30 June 2016 17:17
Search period end: 01 July 2016 17:17
Location: Las Vegas, 36.1750°N, 115.1360°W

Satellite Date Start Highest point End Downlink Frequencies (MHz)
Time Altitude Azimuth
AO-7 30 Jun 17:20:04 17:25:31 19° 267° (W) 17:31:02 29.400- 29.500
LilacSat-2 30 Jun 17:20:11 17:22:37 16° 69° (ENE) 17:25:03 437.200
HORYU 2 30 Jun 17:20:18 17:24:26 39° 261° (W) 17:28:38 437.375
Cubesat XI-IV 30 Jun 17:20:52 17:25:16 27° 67° (ENE) 17:29:42 437.490
GOMX 1 30 Jun 17:23:11 17:25:26 14° 67° (ENE) 17:27:37 467.674
STARS 30 Jun 17:25:21 17:29:36 48° 287° (WNW) 17:33:50 437.465
NOAA 18 30 Jun 17:33:40 17:38:43 40° 70° (ENE) 17:43:49 137.9125
CUTE-I 30 Jun 17:53:30 17:58:42 55° 72° (ENE) 18:03:56 437.470
DOVE 4 30 Jun 18:10:36 18:13:37 19° 69° (ENE) 18:16:33 437.250
HO-68 30 Jun 18:12:42 18:16:27 15° 56° (NE) 18:20:11 435.675
CUSAT 1 30 Jun 18:13:15 18:16:27 49° 78° (ENE) 18:19:07 437.405
NOAA 15 30 Jun 18:13:54 18:19:09 67° 258° (WSW) 18:24:26 137.62
SRMSAT 30 Jun 18:15:03 18:18:33 16° 180° (S) 18:22:03 437.500
GONETS M04 30 Jun 18:20:38 18:29:20 82° 95° (E) 18:38:03
Cosmos 2499 30 Jun 18:33:08 18:41:18 68° 92° (E) 18:50:01 435.465 / 435.565
BRITE-PL 30 Jun 18:37:18 18:41:59 38° 261° (W) 18:46:22 437.365/2234.400
CUBESAT XI-V 30 Jun 18:40:55 18:45:10 37° 288° (WNW) 18:49:21 437.345
RS-15 30 Jun 18:41:28 18:51:42 29° 37° (NE) 19:01:52 29.354- 29.394
CINEMA 3 30 Jun 18:49:38 18:51:42 14° 66° (ENE) 18:53:45 145.822/145.860
LilacSat-2 30 Jun 18:53:25 18:56:41 27° 263° (W) 18:59:58 437.200
DANDE 30 Jun 18:57:56 19:02:20 66° 78° (ENE) 19:05:39 436.750
GOMX 1 30 Jun 18:58:43 19:03:12 48° 261° (W) 19:07:25 467.674
Cubesat XI-IV 30 Jun 19:00:20 19:05:10 34° 262° (W) 19:10:02 437.490
CANX-2 30 Jun 19:01:23 19:04:28 20° 69° (ENE) 19:07:34 2200.000
NOAA 18 30 Jun 19:15:11 19:19:27 23° 265° (W) 19:23:46 137.9125
AO-85 30 Jun 19:16:18 19:17:37 11° 105° (ESE) 19:18:56 145.980
CUTE 1.7 + AOD 2 30 Jun 19:20:15 19:23:54 28° 71° (ENE) 19:27:33 437.475
SEEDS 30 Jun 19:20:23 19:23:27 20° 69° (ENE) 19:26:33 437.485
STRAND 1 30 Jun 19:21:59 19:26:40 34° 98° (E) 19:31:18 437.568
CUTE-I 30 Jun 19:35:49 19:39:02 16° 267° (W) 19:42:17 437.470
DOVE 4 30 Jun 19:47:20 19:51:07 30° 262° (W) 19:54:50 437.250
AAUSAT CUBESAT 2 30 Jun 19:52:02 19:55:28 25° 70° (ENE) 19:58:53 437.432
HO-68 30 Jun 19:55:57 20:03:06 87° 74° (ENE) 20:10:19 435.675
M-CUBED/EXP-1 PRIME 30 Jun 19:59:51 20:02:05 18° 65° (ENE) 20:04:21 437.505
SRMSAT 30 Jun 20:04:28 20:06:56 13° 190° (S) 20:09:24 437.500
CUBEBUG 2 30 Jun 20:05:09 20:08:45 29° 71° (ENE) 20:12:25 437.445
ZACube-1 30 Jun 20:21:09 20:24:11 19° 68° (ENE) 20:27:16 437.345
GONETS M04 30 Jun 20:21:32 20:27:09 18° 294° (WNW) 20:32:47
CINEMA 3 30 Jun 20:24:32 20:28:27 41° 261° (W) 20:32:24 145.822/145.860
Oscar 11 30 Jun 20:25:40 20:29:10 24° 70° (ENE) 20:32:41 145.826/435.025
COMPASS 1 30 Jun 20:27:43 20:31:55 87° 78° (ENE) 20:36:10 437.405
Cosmos 2499 30 Jun 20:28:42 20:35:09 24° 292° (WNW) 20:41:54 435.465 / 435.565
CANX-2 30 Jun 20:36:18 20:40:06 30° 263° (W) 20:43:54 2200.000
FUNcube-1 30 Jun 20:36:42 20:40:16 27° 70° (ENE) 20:43:53 145.935
PRISM 30 Jun 20:37:31 20:41:00 27° 97° (E) 20:44:29 437.425
UWE-3 30 Jun 20:46:37 20:50:44 61° 75° (ENE) 20:54:58 435.000/436.395/437.385
AUBIESAT-1 30 Jun 20:51:30 20:54:46 79° 73° (ENE) 20:58:07 437.475
AO-85 30 Jun 20:51:59 20:57:26 88° 301° (WNW) 21:02:46 145.980
RS-15 30 Jun 20:53:40 21:06:07 88° 61° (ENE) 21:18:20 29.354- 29.394
SEEDS 30 Jun 20:55:12 20:58:56 30° 263° (W) 21:02:42 437.485
CUTE 1.7 + AOD 2 30 Jun 20:56:26 20:59:41 21° 265° (W) 21:02:59 437.475
STRAND 1 30 Jun 21:01:29 21:05:38 25° 293° (WNW) 21:09:45 437.568
HUMSAT D 30 Jun 21:12:40 21:15:17 16° 67° (ENE) 21:17:56 437.325/437.525
DELFI C3 30 Jun 21:17:21 21:21:08 40° 73° (ENE) 21:24:55 145.870
AAUSAT CUBESAT 2 30 Jun 21:27:31 21:30:51 23° 265° (W) 21:34:12 437.432
M-CUBED/EXP-1 PRIME 30 Jun 21:34:14 21:36:34 18° 259° (W) 21:38:54 437.505
CUBEBUG 2 30 Jun 21:42:24 21:45:23 19° 266° (W) 21:48:26 437.445
HO-68 30 Jun 21:48:04 21:51:34 14° 269° (W) 21:55:04 435.675
ZACube-1 30 Jun 21:56:33 22:00:15 30° 264° (W) 22:04:01 437.345
Oscar 11 30 Jun 22:01:36 22:05:11 25° 264° (W) 22:08:47 145.826/435.025
TIGRISAT 30 Jun 22:06:29 22:09:49 19° 94° (E) 22:13:08 435.000
UNISAT 6 30 Jun 22:12:09 22:15:55 23° 95° (E) 22:19:39 437.425
PRISM 30 Jun 22:13:10 22:16:08 20° 291° (WNW) 22:19:04 437.425
FUNcube-1 30 Jun 22:13:17 22:16:28 21° 266° (W) 22:19:43 145.935
CUBEBUG 1 30 Jun 22:19:58 22:20:53 11° 64° (ENE) 22:21:50 437.445
VELOX 1 30 Jun 22:33:19 22:35:44 15° 66° (ENE) 22:38:10 145.980
AO-85 30 Jun 22:35:49 22:38:36 14° 316° (NW) 22:41:20 145.980
YUBILEINY 30 Jun 22:36:52 22:44:05 27° 71° (ENE) 22:51:13 435.215
HUMSAT D 30 Jun 22:46:45 22:50:35 36° 262° (W) 22:54:29 437.325/437.525
ANTELSAT 30 Jun 22:51:09 22:55:48 64° 101° (E) 23:00:28 437.575/2403.000
50 SAT 30 Jun 22:51:37 22:54:29 22° 70° (ENE) 22:57:23 437.505
DELFI C3 30 Jun 22:54:17 22:56:08 13° 267° (W) 22:58:00 145.870
SPROUT 30 Jun 22:58:15 22:59:09 11° 65° (ENE) 23:00:02 437.525
UKube-1 30 Jun 22:59:42 23:02:34 18° 67° (ENE) 23:05:26 .
RS-15 30 Jun 23:08:30 23:16:59 22° 260° (W) 23:25:25 29.354- 29.394
AISAT 30 Jun 23:12:30 23:16:38 42° 73° (ENE) 23:20:47 437.250
ESTCUBE 1 30 Jun 23:18:48 23:23:20 81° 76° (ENE) 23:27:53 437.505/2401.250
DX 1 30 Jun 23:23:13 23:27:16 41° 73° (ENE) 23:31:21 434.975-435.025
NANOSAT C BR1 30 Jun 23:27:24 23:30:43 22° 95° (E) 23:34:02 145.865
QB50P1 30 Jun 23:31:43 23:35:20 26° 97° (E) 23:38:54 145.935-145.965
POPSAT HIP 1 30 Jun 23:35:07 23:38:49 28° 97° (E) 23:42:31 437.405
TIGRISAT 30 Jun 23:42:16 23:46:33 37° 288° (WNW) 23:50:52 435.000
Cosmos 2491 30 Jun 23:43:50 23:51:48 41° 87° (E) 23:59:45 435.465 / 435.565
DUCHIFAT 1 30 Jun 23:46:12 23:50:05 34° 98° (E) 23:53:57 145.980
QB50P2 30 Jun 23:47:50 23:51:56 43° 99° (E) 23:56:00 145.880/145.840
UNISAT 6 30 Jun 23:48:29 23:52:34 30° 289° (WNW) 23:56:40 437.425
POLYITAN 1 30 Jun 23:50:27 23:54:34 44° 99° (E) 23:58:40 437.675
CUBEBUG 1 30 Jun 23:52:18 23:56:37 62° 259° (W) 00:00:55 437.445
SO-50 30 Jun 23:55:43 00:00:10 44° 55° (NE) 00:04:28 436.795
Cosmos 2504 01 Jul 00:00:48 00:08:15 29° 71° (ENE) 00:15:22 435.465 / 435.565
TISAT 1 01 Jul 00:06:56 00:09:30 16° 67° (ENE) 00:12:03 437.305
VELOX 1 01 Jul 00:07:35 00:11:48 45° 261° (W) 00:16:02 145.980
50 SAT 01 Jul 00:25:17 00:28:04 20° 265° (W) 00:30:52 437.505
ANTELSAT 01 Jul 00:30:06 00:31:57 12° 296° (WNW) 00:33:47 437.575/2403.000
SPROUT 01 Jul 00:30:22 00:34:33 59° 259° (W) 00:38:45 437.525
BUGSAT 1 01 Jul 00:30:49 00:34:50 50° 100° (E) 00:38:52 437.445
YUBILEINY 01 Jul 00:32:42 00:41:20 60° 269° (W) 00:49:56 435.215
UKube-1 01 Jul 00:34:22 00:38:18 35° 261° (W) 00:42:17 .
JAS-2 01 Jul 00:42:17 00:47:06 32° 96° (E) 00:51:42 435.910
PCSat 01 Jul 00:48:45 00:53:37 35° 109° (ESE) 00:58:30 145.827
AISAT 01 Jul 00:50:51 00:53:17 15° 267° (W) 00:55:43 437.250
BEESAT 2 01 Jul 00:59:53 01:01:28 12° 108° (ESE) 01:03:02 435.950
DX 1 01 Jul 01:01:11 01:03:37 15° 266° (W) 01:06:03 434.975-435.025
NANOSAT C BR1 01 Jul 01:02:50 01:06:23 26° 290° (WNW) 01:09:57 145.865
Oscar 19 01 Jul 01:05:28 01:08:57 18° 94° (E) 01:12:23 437.125/150
QB50P1 01 Jul 01:07:37 01:10:57 23° 291° (WNW) 01:14:16 145.935-145.965
POPSAT HIP 1 01 Jul 01:11:12 01:14:25 21° 291° (WNW) 01:17:38 437.405
DUCHIFAT 1 01 Jul 01:22:41 01:25:30 17° 292° (WNW) 01:28:18 145.980
QB50P2 01 Jul 01:25:03 01:27:20 14° 294° (WNW) 01:29:37 145.880/145.840
POLYITAN 1 01 Jul 01:27:43 01:29:58 14° 294° (WNW) 01:32:11 437.675
SO-50 01 Jul 01:37:18 01:40:14 17° 251° (WSW) 01:43:06 436.795
Cosmos 2491 01 Jul 01:40:31 01:48:32 39° 285° (WNW) 01:56:35 435.465 / 435.565
TISAT 1 01 Jul 01:41:01 01:44:50 35° 262° (W) 01:48:41 437.305
Gurwin Techsat 1B 01 Jul 01:44:08 01:47:50 19° 94° (E) 01:51:30 435.225
O/OREOS (USA 219) 01 Jul 01:45:47 01:50:05 46° 106° (ESE) 01:54:22 437.305
SWISSCUBE 01 Jul 01:49:11 01:53:47 48° 72° (ENE) 01:58:24 437.505
BEESAT 3 01 Jul 01:51:28 01:55:23 78° 300° (WNW) 01:59:19 437.485
Cosmos 2504 01 Jul 01:53:29 02:02:01 56° 270° (W) 02:10:07 435.465 / 435.565
BUGSAT 1 01 Jul 02:08:15 02:09:45 12° 294° (WNW) 02:11:16 437.445
BEESAT 01 Jul 02:13:56 02:18:42 81° 76° (ENE) 02:23:31 436.000
ITUPSAT 1 01 Jul 02:16:49 02:21:37 85° 76° (ENE) 02:26:28 437.325
JAS-2 01 Jul 02:27:38 02:32:04 26° 294° (WNW) 02:36:17 435.910
MOZHAYETS 4 01 Jul 02:31:42 02:33:24 12° 64° (ENE) 02:35:06
PCSat 01 Jul 02:32:20 02:37:00 29° 306° (NW) 02:41:43 145.827
BEESAT 2 01 Jul 02:35:02 02:38:50 46° 303° (WNW) 02:42:41 435.950
Oscar 19 01 Jul 02:43:34 02:48:26 45° 288° (WNW) 02:53:19 437.125/150
AIST 1 01 Jul 02:49:58 02:51:12 11° 71° (ENE) 02:52:27
ITAMSAT 1 01 Jul 03:12:04 03:17:06 46° 100° (E) 03:22:06 435.822/435.867
Gurwin Techsat 1B 01 Jul 03:22:53 03:27:58 47° 288° (WNW) 03:33:02 435.225
O/OREOS (USA 219) 01 Jul 03:27:04 03:29:43 15° 302° (WNW) 03:32:22 437.305
SWISSCUBE 01 Jul 03:29:04 03:31:48 15° 267° (W) 03:34:32 437.505
AO-7 01 Jul 03:29:07 03:36:18 31° 97° (E) 03:43:24 29.400- 29.500
AIST 2 01 Jul 03:40:38 03:44:27 39° 114° (ESE) 03:48:18 435.215
KKS-1 01 Jul 03:54:33 03:58:58 72° 258° (WSW) 04:03:23 437.445
MOZHAYETS 4 01 Jul 04:05:24 04:09:58 63° 259° (W) 04:14:36
CUBESAT XI-V 01 Jul 04:06:07 04:08:36 14° 65° (ENE) 04:11:05 437.345
STARS 01 Jul 04:18:54 04:23:15 78° 258° (WSW) 04:27:37 437.465
AIST 1 01 Jul 04:24:59 04:29:06 49° 267° (W) 04:33:12
Cosmos 2499 01 Jul 04:29:26 04:35:39 21° 67° (ENE) 04:41:34 435.465 / 435.565
PHONESAT 2.4 01 Jul 04:32:50 04:35:19 22° 148° (SSE) 04:37:48 2401.200-2431.200
GONETS M04 01 Jul 04:34:39 04:42:29 36° 74° (ENE) 04:50:18
ITAMSAT 1 01 Jul 04:52:31 04:56:11 20° 295° (WNW) 04:59:50 435.822/435.867
HORYU 2 01 Jul 05:13:31 05:17:51 45° 100° (E) 05:22:09 437.375
AIST 2 01 Jul 05:20:14 05:23:04 18° 310° (NW) 05:25:56 435.215
AO-7 01 Jul 05:21:12 05:29:17 54° 294° (WNW) 05:37:17 29.400- 29.500
AO-85 01 Jul 05:27:24 05:31:31 35° 54° (NE) 05:35:18 145.980
CUSAT 1 01 Jul 05:31:19 05:34:33 13° 86° (E) 05:37:35 437.405
CUBESAT XI-V 01 Jul 05:40:55 05:45:30 53° 260° (W) 05:50:05 437.345
Cubesat XI-IV 01 Jul 05:42:19 05:44:30 12° 91° (E) 05:46:41 437.490
NOAA 18 01 Jul 05:58:58 06:03:07 21° 95° (E) 06:07:14 137.9125
ISS 01 Jul 06:04:38 06:05:32 11° 127° (SE) 06:06:27 145.825
PHONESAT 2.4 01 Jul 06:08:41 06:11:45 67° 344° (NNW) 06:14:47 2401.200-2431.200
CUTE-I 01 Jul 06:13:45 06:18:16 27° 96° (E) 06:22:46 437.470
DANDE 01 Jul 06:18:38 06:24:01 19° 85° (E) 06:29:09 436.750
Cosmos 2499 01 Jul 06:21:00 06:29:40 74° 266° (W) 06:37:42 435.465 / 435.565
LilacSat-2 01 Jul 06:28:53 06:32:28 34° 98° (E) 06:36:02 437.200
GONETS M04 01 Jul 06:31:14 06:39:20 45° 272° (W) 06:47:29
NOAA 15 01 Jul 06:31:45 06:36:56 57° 101° (E) 06:42:04 137.62
STRAND 1 01 Jul 06:35:11 06:39:53 38° 71° (ENE) 06:44:38 437.568
BRITE-PL 01 Jul 06:44:08 06:48:18 83° 104° (ESE) 06:52:34 437.365/2234.400
HORYU 2 01 Jul 06:51:24 06:54:00 15° 294° (WNW) 06:56:34 437.375
GOMX 1 01 Jul 07:02:19 07:06:32 55° 100° (E) 07:10:57 467.674
CUSAT 1 01 Jul 07:08:16 07:16:05 86° 98° (E) 07:22:36 437.405
AO-85 01 Jul 07:08:42 07:11:35 18° 252° (WSW) 07:14:19 145.980
Cubesat XI-IV 01 Jul 07:19:39 07:25:01 70° 286° (WNW) 07:30:21 437.490
PRISM 01 Jul 07:25:25 07:27:49 15° 67° (ENE) 07:30:12 437.425
HO-68 01 Jul 07:28:18 07:33:04 19° 93° (E) 07:37:48 435.675
ISS 01 Jul 07:38:21 07:41:34 58° 321° (NW) 07:44:48 145.825
NOAA 18 01 Jul 07:38:39 07:43:55 45° 289° (WNW) 07:49:10 137.9125
PHONESAT 2.4 01 Jul 07:45:46 07:48:36 34° 359° (N) 07:51:27 2401.200-2431.200
DOVE 4 01 Jul 07:47:15 07:51:41 80° 101° (ESE) 07:56:23 437.250
CUTE-I 01 Jul 07:53:31 07:58:17 33° 291° (WNW) 08:03:02 437.470
DANDE 01 Jul 07:57:42 08:06:10 83° 279° (W) 08:13:54 436.750
LilacSat-2 01 Jul 08:04:19 08:06:27 14° 292° (WNW) 08:08:36 437.200
NOAA 15 01 Jul 08:13:03 08:16:11 16° 296° (WNW) 08:19:19 137.62
COMPASS 1 01 Jul 08:14:26 08:17:07 17° 93° (E) 08:19:47 437.405
STRAND 1 01 Jul 08:15:12 08:19:08 22° 265° (W) 08:23:06 437.568
Cosmos 2499 01 Jul 08:18:57 08:21:01 11° 285° (WNW) 08:23:05 435.465 / 435.565
CINEMA 3 01 Jul 08:20:43 08:25:16 52° 100° (E) 08:30:00 145.822/145.860
CANX-2 01 Jul 08:23:25 08:27:38 53° 100° (E) 08:31:47 2200.000
UWE-3 01 Jul 08:39:43 08:42:41 17° 93° (E) 08:45:39 435.000/436.395/437.385
SEEDS 01 Jul 08:41:11 08:45:19 52° 99° (E) 08:49:25 437.485
CUTE 1.7 + AOD 2 01 Jul 08:42:46 08:47:03 80° 101° (E) 08:51:18 437.475
GOMX 1 01 Jul 08:42:50 08:44:13 11° 294° (WNW) 08:45:36 467.674
CUSAT 1 01 Jul 08:54:17 08:58:28 16° 289° (WNW) 09:02:17 437.405
PRISM 01 Jul 08:58:54 09:02:47 38° 261° (W) 09:06:40 437.425
TIGRISAT 01 Jul 09:04:31 09:05:59 12° 64° (ENE) 09:07:29 435.000
RS-15 01 Jul 09:08:24 09:13:34 14° 96° (E) 09:18:49 29.354- 29.394
UNISAT 6 01 Jul 09:09:45 09:12:06 14° 66° (ENE) 09:14:29 437.425
AAUSAT CUBESAT 2 01 Jul 09:11:25 09:15:34 66° 101° (E) 09:19:39 437.432
M-CUBED/EXP-1 PRIME 01 Jul 09:13:51 09:17:20 27° 103° (ESE) 09:21:01 437.505
HO-68 01 Jul 09:14:07 09:21:18 71° 288° (WNW) 09:28:26 435.675
ISS 01 Jul 09:17:43 09:18:35 11° 338° (NNW) 09:19:28 145.825
PHONESAT 2.4 01 Jul 09:22:29 09:25:30 57° 15° (NNE) 09:28:33 2401.200-2431.200
CUBEBUG 2 01 Jul 09:33:51 09:38:32 82° 283° (WNW) 09:43:17 437.445
PCSat 01 Jul 09:39:44 09:43:26 18° 49° (NE) 09:47:07 145.827
DANDE 01 Jul 09:44:56 09:49:43 16° 293° (WNW) 09:54:16 436.750
ZACube-1 01 Jul 09:46:34 09:51:07 61° 100° (E) 09:55:38 437.345
ANTELSAT 01 Jul 09:47:31 09:51:30 38° 72° (ENE) 09:55:35 437.575/2403.000
COMPASS 1 01 Jul 09:48:59 09:52:44 33° 288° (WNW) 09:56:28 437.405
Oscar 11 01 Jul 09:50:29 09:54:50 71° 101° (ESE) 09:59:09 145.826/435.025
Cosmos 2491 01 Jul 09:58:47 10:03:54 17° 65° (ENE) 10:08:59 435.465 / 435.565
CINEMA 3 01 Jul 09:59:27 10:02:00 15° 293° (WNW) 10:04:34 145.822/145.860
CANX-2 01 Jul 10:01:26 10:02:58 12° 295° (WNW) 10:04:31 2200.000
FUNcube-1 01 Jul 10:02:21 10:06:57 86° 106° (ESE) 10:11:32 145.935
AUBIESAT-1 01 Jul 10:05:39 10:09:45 88° 288° (WNW) 10:14:07 437.475
BEESAT 3 01 Jul 10:11:32 10:14:51 25° 53° (NE) 10:18:08 437.485
UWE-3 01 Jul 10:14:54 10:19:16 42° 287° (WNW) 10:23:39 435.000/436.395/437.385
NANOSAT C BR1 01 Jul 10:18:43 10:20:21 12° 65° (ENE) 10:21:58 145.865
SEEDS 01 Jul 10:19:00 10:20:31 12° 295° (WNW) 10:22:01 437.485
QB50P1 01 Jul 10:22:51 10:25:08 14° 67° (ENE) 10:27:26 145.935-145.965
POPSAT HIP 1 01 Jul 10:26:09 10:28:39 16° 67° (ENE) 10:31:08 437.405
DELFI C3 01 Jul 10:32:03 10:36:03 82° 281° (WNW) 10:39:59 145.870
HUMSAT D 01 Jul 10:32:27 10:36:34 41° 98° (E) 10:40:37 437.325/437.525
DUCHIFAT 1 01 Jul 10:36:20 10:39:12 18° 68° (ENE) 10:42:05 145.980
TIGRISAT 01 Jul 10:37:55 10:42:07 56° 260° (W) 10:46:27 435.000
QB50P2 01 Jul 10:38:22 10:41:41 23° 70° (ENE) 10:45:02 145.880/145.840
POLYITAN 1 01 Jul 10:40:58 10:44:18 24° 70° (ENE) 10:47:40 437.675
UNISAT 6 01 Jul 10:44:17 10:48:23 44° 261° (W) 10:52:37 437.425
M-CUBED/EXP-1 PRIME 01 Jul 10:48:31 10:51:44 23° 294° (WNW) 10:55:07 437.505
JAS-2 01 Jul 10:52:45 10:56:44 16° 61° (ENE) 11:00:32 435.910
BEESAT 2 01 Jul 10:55:23 10:59:11 40° 56° (NE) 11:02:57 435.950
PHONESAT 2.4 01 Jul 10:59:18 11:02:00 28° 211° (SSW) 11:04:42 2401.200-2431.200
HO-68 01 Jul 11:05:18 11:07:44 12° 306° (NW) 11:10:10 435.675
RS-15 01 Jul 11:12:29 11:23:44 76° 115° (ESE) 11:35:39 29.354- 29.394
ESTCUBE 1 01 Jul 11:14:51 11:18:11 20° 95° (E) 11:21:30 437.505/2401.250
BUGSAT 1 01 Jul 11:18:32 11:21:45 23° 70° (ENE) 11:24:58 437.445
PCSat 01 Jul 11:21:54 11:27:16 62° 247° (WSW) 11:32:35 145.827
ZACube-1 01 Jul 11:25:02 11:26:50 12° 295° (WNW) 11:28:39 437.345
ANTELSAT 01 Jul 11:25:44 11:28:22 16° 267° (W) 11:31:01 437.575/2403.000
YUBILEINY 01 Jul 11:34:37 11:42:05 33° 85° (E) 11:49:34 435.215
CUBEBUG 1 01 Jul 11:43:50 11:47:33 28° 97° (E) 11:51:16 437.445
BEESAT 3 01 Jul 11:49:15 11:52:25 23° 248° (WSW) 11:55:33 437.485
NANOSAT C BR1 01 Jul 11:51:34 11:55:36 49° 260° (W) 11:59:41 145.865
Cosmos 2491 01 Jul 11:53:08 12:01:53 89° 263° (W) 12:10:37 435.465 / 435.565
50 SAT 01 Jul 11:55:59 11:59:25 37° 98° (E) 12:02:49 437.505
QB50P1 01 Jul 11:56:36 12:00:32 40° 261° (W) 12:04:31 145.935-145.965
O/OREOS (USA 219) 01 Jul 11:58:11 12:02:36 57° 68° (ENE) 12:07:02 437.305
VELOX 1 01 Jul 12:00:11 12:04:19 39° 99° (E) 12:08:25 145.980
POPSAT HIP 1 01 Jul 12:00:12 12:04:05 37° 262° (W) 12:08:01 437.405
AIST 2 01 Jul 12:05:29 12:07:40 14° 47° (NE) 12:09:50 435.215
HUMSAT D 01 Jul 12:09:19 12:11:47 15° 293° (WNW) 12:14:15 437.325/437.525
DUCHIFAT 1 01 Jul 12:10:57 12:14:39 31° 262° (W) 12:18:23 145.980
QB50P2 01 Jul 12:13:55 12:17:22 24° 264° (W) 12:20:49 145.880/145.840
POLYITAN 1 01 Jul 12:16:37 12:20:00 24° 264° (W) 12:23:25 437.675
SPROUT 01 Jul 12:19:14 12:22:54 27° 96° (E) 12:26:34 437.525
Oscar 19 01 Jul 12:19:51 12:23:38 21° 66° (ENE) 12:27:26 437.125/150
UKube-1 01 Jul 12:23:42 12:27:50 43° 100° (E) 12:31:56 .
JAS-2 01 Jul 12:33:18 12:40:59 88° 76° (ENE) 12:47:57 435.910
BEESAT 2 01 Jul 12:34:32 12:36:38 14° 251° (WSW) 12:38:45 435.950
Cosmos 2504 01 Jul 12:36:18 12:42:31 25° 81° (E) 12:49:01 435.465 / 435.565
AISAT 01 Jul 12:41:17 12:45:38 63° 285° (WNW) 12:49:58 437.250
DX 1 01 Jul 12:49:40 12:54:00 71° 284° (WNW) 12:58:18 434.975-435.025
ESTCUBE 1 01 Jul 12:51:02 12:55:00 31° 289° (WNW) 12:58:57 437.505/2401.250
BUGSAT 1 01 Jul 12:53:56 12:57:02 21° 264° (W) 13:00:09 437.445
Gurwin Techsat 1B 01 Jul 13:02:35 13:06:45 24° 67° (ENE) 13:10:57 435.225
JUGNU 01 Jul 13:06:59 13:07:55 10° 166° (SSE) 13:08:52 437.505
CUBEBUG 1 01 Jul 13:20:22 13:23:40 22° 291° (WNW) 13:26:58 437.445
TISAT 1 01 Jul 13:27:10 13:31:09 39° 99° (E) 13:35:06 437.305
RS-15 01 Jul 13:27:16 13:37:22 34° 319° (NW) 13:48:00 29.354- 29.394
YUBILEINY 01 Jul 13:30:13 13:38:30 48° 283° (WNW) 13:46:54 435.215
50 SAT 01 Jul 13:31:19 13:32:43 12° 293° (WNW) 13:34:06 437.505
VELOX 1 01 Jul 13:37:40 13:40:26 17° 293° (WNW) 13:43:12 145.980
O/OREOS (USA 219) 01 Jul 13:40:18 13:41:26 11° 262° (W) 13:42:34 437.305
AIST 2 01 Jul 13:42:24 13:46:29 56° 244° (WSW) 13:50:32 435.215
Cosmos 2491 01 Jul 13:53:05 13:57:23 15° 282° (WNW) 14:01:42 435.465 / 435.565
SWISSCUBE 01 Jul 13:53:24 13:56:11 15° 93° (E) 13:58:57 437.505
SPROUT 01 Jul 13:55:23 13:58:41 22° 291° (WNW) 14:01:59 437.525
Oscar 19 01 Jul 13:57:50 14:02:39 41° 261° (W) 14:07:30 437.125/150
UKube-1 01 Jul 14:01:07 14:03:29 15° 294° (WNW) 14:05:51 .
SO-50 01 Jul 14:07:24 14:11:31 28° 112° (ESE) 14:15:39 436.795
ISS 01 Jul 14:08:13 14:11:23 46° 38° (NE) 14:14:32 145.825
BEESAT 01 Jul 14:17:20 14:21:16 25° 96° (E) 14:25:11 436.000
ITUPSAT 1 01 Jul 14:20:33 14:24:35 27° 96° (E) 14:28:36 437.325
JAS-2 01 Jul 14:22:28 14:26:26 15° 269° (W) 14:30:16 435.910
AO-7 01 Jul 14:25:21 14:32:36 35° 61° (ENE) 14:39:54 29.400- 29.500
Cosmos 2504 01 Jul 14:27:03 14:35:05 62° 280° (W) 14:43:42 435.465 / 435.565
ITAMSAT 1 01 Jul 14:27:17 14:32:20 55° 73° (ENE) 14:37:27 435.822/435.867
Gurwin Techsat 1B 01 Jul 14:41:32 14:46:27 38° 262° (W) 14:51:23 435.225
JUGNU 01 Jul 14:52:42 14:56:07 16° 176° (S) 14:59:33 437.505
TISAT 1 01 Jul 15:03:58 15:06:26 15° 293° (WNW) 15:08:54 437.305
SWISSCUBE 01 Jul 15:29:36 15:34:12 48° 287° (WNW) 15:38:46 437.505
ISS 01 Jul 15:45:44 15:47:31 14° 232° (SW) 15:49:17 145.825
SO-50 01 Jul 15:47:30 15:51:53 32° 307° (NW) 15:56:17 436.795
KKS-1 01 Jul 15:48:33 15:52:17 26° 97° (E) 15:56:00 437.445
RS-15 01 Jul 15:49:02 15:55:28 15° 354° (N) 16:01:59 29.354- 29.394
BEESAT 01 Jul 15:54:52 15:58:59 29° 291° (WNW) 16:03:05 436.000
ITUPSAT 1 01 Jul 15:58:16 16:02:20 28° 291° (WNW) 16:06:22 437.325
MOZHAYETS 4 01 Jul 16:03:15 16:07:32 36° 98° (E) 16:11:46
ITAMSAT 1 01 Jul 16:09:03 16:12:06 16° 267° (W) 16:15:10 435.822/435.867
HORYU 2 01 Jul 16:09:06 16:12:57 30° 70° (ENE) 16:16:51 437.375
STARS 01 Jul 16:11:29 16:14:59 23° 96° (E) 16:18:28 437.465
SRMSAT 01 Jul 16:14:21 16:17:11 14° 171° (S) 16:20:03 437.500
AO-7 01 Jul 16:17:04 16:25:02 50° 258° (WSW) 16:33:06 29.400- 29.500
JUGNU 01 Jul 16:41:11 16:44:23 15° 187° (S) 16:47:34 437.505
AIST 1 01 Jul 16:51:00 16:55:19 76° 279° (W) 16:59:37
Cubesat XI-IV 01 Jul 17:01:17 17:04:43 18° 64° (ENE) 17:08:09 437.490
Cosmos 2499 01 Jul 17:03:52 17:08:52 17° 78° (ENE) 17:13:59 435.465 / 435.565
LilacSat-2 01 Jul 17:10:11 17:11:46 12° 67° (ENE) 17:13:21 437.200
